sat.trackr.live / text

‹ back to catalog

GSAT0209 (GALILEO 12)

NORAD 41174 · 2015-079A

PAYLOAD ACTIVE UNKNOWN

§ Identity

Operator
Country
ESA
Launch date
2015-12-17
Launch site
FRGUI
Launch vehicle
Mass (kg)
RCS (m²)
6.73

Purposes: earth_obs, nav

External: N2YO · Heavens-Above · Gunter

§ Orbital elements

Epoch: 2026-08-29T22:46:21.947232Z

Period
844.70 min
Inclination
55.8723°
Eccentricity
0.0003740
Mean motion
1.70473774 rev/d
Perigee alt
23,211.1 km
Apogee alt
23,233.3 km
Semi-major
29,600.3 km
B*
0.0000e+0
RAAN
99.2373°
Arg perigee
13.7105°
Mean anomaly
346.4072°
Rev number
6,603

§ Raw data

GSAT0209 (GALILEO 12)1 41174U 15079A   26241.94886513  .00000032  00000+0  00000+0 0  99912 41174  55.8723  99.2373 0003740  13.7105 346.4072  1.70473774 66034

JSON: /api/v1/satellites/41174 · /tle

For live sub-satellite position, see the globe view (requires WebGL).

§ Visibility from observer

Set your observer location to see the next 7 days of passes ≥ 10°. The values pass through the URL so the page stays shareable.

No JS? Fill the form by hand. The geolocation button needs JavaScript.